EN

Hourly Weather Borda da Mata

Today, 10 May, Monday

Time Temperature Precipitation Wind Pressure Humidity
00:00 +14°C° 0 mm 1 mps 686 mmHg 93%
01:00 +14°C° 0 mm 1 mps 686 mmHg 93%
02:00 +13°C° 0 mm 1 mps 686 mmHg 94%
03:00 +13°C° 0 mm 1 mps 685 mmHg 95%
04:00 +13°C° 0 mm 1 mps 686 mmHg 95%
05:00 +13°C° 0 mm 1 mps 686 mmHg 95%
06:00 +12°C° 0 mm 1 mps 686 mmHg 96%
07:00 +14°C° 0 mm 1 mps 686 mmHg 91%
08:00 +16°C° 0 mm 1 mps 687 mmHg 85%
09:00 +18°C° 0 mm 2 mps 688 mmHg 80%
10:00 +19°C° 0 mm 2 mps 688 mmHg 73%
11:00 +22°C° 0 mm 1 mps 688 mmHg 67%
12:00 +24°C° 0 mm 1 mps 687 mmHg 60%
13:00 +24°C° 0 mm 1 mps 687 mmHg 59%
14:00 +24°C° 0 mm 1 mps 686 mmHg 59%
15:00 +24°C° 0 mm 1 mps 685 mmHg 59%
16:00 +23°C° 0 mm 1 mps 685 mmHg 64%
17:00 +21°C° 0 mm 1 mps 685 mmHg 70%
18:00 +20°C° 0 mm 1 mps 685 mmHg 76%
19:00 +19°C° 0 mm 1 mps 685 mmHg 79%
20:00 +18°C° 0 mm 1 mps 685 mmHg 83%
21:00 +16°C° 0 mm 1 mps 685 mmHg 86%
22:00 +15°C° 0 mm 1 mps 685 mmHg 87%
23:00 +15°C° 0 mm 1 mps 685 mmHg 88%

Tomorrow, 11 May, Tuesday

Time Temperature Precipitation Wind Pressure Humidity
00:00 +15°C° 0 mm 1 mps 685 mmHg 88%
01:00 +14°C° 0 mm 1 mps 684 mmHg 89%
02:00 +14°C° 0 mm 1 mps 684 mmHg 89%
03:00 +13°C° 0 mm 0 mps 683 mmHg 90%
04:00 +13°C° 0 mm 0 mps 683 mmHg 90%
05:00 +13°C° 0 mm 1 mps 683 mmHg 91%
06:00 +13°C° 0 mm 1 mps 683 mmHg 91%
07:00 +15°C° 0 mm 1 mps 684 mmHg 85%
08:00 +18°C° 0 mm 1 mps 685 mmHg 78%
09:00 +20°C° 0 mm 1 mps 685 mmHg 72%
10:00 +22°C° 0 mm 1 mps 685 mmHg 65%
11:00 +24°C° 0 mm 1 mps 685 mmHg 59%
12:00 +26°C° 0 mm 1 mps 685 mmHg 52%
13:00 +26°C° 0 mm 2 mps 684 mmHg 51%
14:00 +26°C° 0 mm 2 mps 684 mmHg 49%
15:00 +26°C° 0 mm 2 mps 683 mmHg 47%
16:00 +25°C° 0 mm 2 mps 683 mmHg 53%
17:00 +23°C° 0 mm 1 mps 683 mmHg 60%
18:00 +21°C° 0 mm 1 mps 683 mmHg 66%
19:00 +20°C° 0 mm 1 mps 683 mmHg 68%
20:00 +20°C° 0 mm 1 mps 683 mmHg 70%
21:00 +19°C° 0 mm 1 mps 683 mmHg 72%
22:00 +19°C° 0 mm 1 mps 683 mmHg 73%
23:00 +18°C° 0 mm 1 mps 683 mmHg 74%

Day after tomorrow, 12 May, Wednesday

Time Temperature Precipitation Wind Pressure Humidity
00:00 +16°C° 0 mm 0 mps 683 mmHg 74%
01:00 +16°C° 0 mm 1 mps 682 mmHg 77%
02:00 +16°C° 0 mm 1 mps 682 mmHg 80%
03:00 +15°C° 0 mm 1 mps 681 mmHg 82%
04:00 +15°C° 0 mm 1 mps 682 mmHg 84%
05:00 +15°C° 0 mm 1 mps 682 mmHg 85%
06:00 +14°C° 0 mm 1 mps 682 mmHg 87%
07:00 +16°C° 0 mm 1 mps 683 mmHg 81%
08:00 +19°C° 0 mm 1 mps 683 mmHg 74%
09:00 +20°C° 0 mm 2 mps 684 mmHg 68%
10:00 +23°C° 0 mm 2 mps 684 mmHg 62%
11:00 +25°C° 0 mm 3 mps 684 mmHg 55%
12:00 +27°C° 0 mm 3 mps 683 mmHg 49%
13:00 +27°C° 0 mm 3 mps 683 mmHg 48%
14:00 +27°C° 0 mm 3 mps 683 mmHg 48%
15:00 +27°C° 0 mm 3 mps 682 mmHg 48%
16:00 +25°C° 0 mm 3 mps 682 mmHg 52%
17:00 +23°C° 0 mm 2 mps 682 mmHg 57%
18:00 +21°C° 0 mm 2 mps 682 mmHg 61%
19:00 +19°C° 0 mm 2 mps 682 mmHg 69%
20:00 +18°C° 0 mm 2 mps 683 mmHg 76%
21:00 +17°C° 0 mm 2 mps 683 mmHg 84%
22:00 +17°C° 0 mm 2 mps 683 mmHg 87%
23:00 +16°C° 0 mm 1 mps 683 mmHg 91%

13 May, Thursday

Time Temperature Precipitation Wind Pressure Humidity
00:00 +16°C° 0 mm 1 mps 684 mmHg 94%
01:00 +16°C° 0 mm 1 mps 683 mmHg 94%
02:00 +16°C° 0 mm 1 mps 683 mmHg 93%
03:00 +16°C° 0 mm 1 mps 683 mmHg 93%
04:00 +15°C° 0 mm 1 mps 683 mmHg 94%
05:00 +14°C° 0 mm 1 mps 683 mmHg 95%
06:00 +14°C° 0 mm 1 mps 683 mmHg 96%
07:00 +15°C° 0 mm 1 mps 684 mmHg 88%
08:00 +17°C° 0 mm 2 mps 685 mmHg 81%
09:00 +18°C° 0 mm 2 mps 685 mmHg 74%
10:00 +20°C° 0 mm 2 mps 685 mmHg 69%
11:00 +21°C° 0 mm 2 mps 685 mmHg 64%
12:00 +24°C° 0 mm 2 mps 685 mmHg 59%
13:00 +24°C° 0 mm 2 mps 685 mmHg 59%
14:00 +24°C° 0 mm 2 mps 685 mmHg 60%
15:00 +24°C° 0 mm 2 mps 684 mmHg 60%
16:00 +21°C° 0 mm 2 mps 684 mmHg 67%
17:00 +19°C° 0 mm 2 mps 684 mmHg 75%
18:00 +19°C° 0 mm 1 mps 684 mmHg 82%
19:00 +18°C° 0 mm 1 mps 684 mmHg 86%
20:00 +16°C° 0 mm 1 mps 684 mmHg 89%
21:00 +15°C° 0 mm 1 mps 684 mmHg 93%
22:00 +14°C° 0 mm 1 mps 684 mmHg 93%
23:00 +14°C° 0 mm 1 mps 684 mmHg 94%

14 May, Friday

Time Temperature Precipitation Wind Pressure Humidity
00:00 +13°C° 0 mm 1 mps 684 mmHg 94%
01:00 +13°C° 0 mm 1 mps 684 mmHg 95%
02:00 +13°C° 0 mm 1 mps 684 mmHg 95%
03:00 +12°C° 0 mm 1 mps 684 mmHg 96%
04:00 +12°C° 0 mm 1 mps 684 mmHg 96%
05:00 +12°C° 0 mm 1 mps 684 mmHg 96%
06:00 +12°C° 0 mm 1 mps 684 mmHg 96%
07:00 +14°C° 0 mm 1 mps 684 mmHg 91%
08:00 +16°C° 0 mm 2 mps 685 mmHg 86%
09:00 +17°C° 0 mm 2 mps 685 mmHg 81%
10:00 +19°C° 0 mm 2 mps 685 mmHg 74%
11:00 +21°C° 0 mm 2 mps 685 mmHg 67%
12:00 +24°C° 0 mm 1 mps 685 mmHg 61%
13:00 +24°C° 0.2 mm 1 mps 685 mmHg 64%
14:00 +23°C° 0.2 mm 1 mps 684 mmHg 67%
15:00 +23°C° 0.2 mm 1 mps 684 mmHg 70%
16:00 +22°C° 0.1 mm 1 mps 683 mmHg 74%
17:00 +20°C° 0.1 mm 1 mps 683 mmHg 79%
18:00 +19°C° 0.1 mm 1 mps 683 mmHg 83%
19:00 +19°C° 0 mm 1 mps 683 mmHg 85%
20:00 +18°C° 0 mm 1 mps 684 mmHg 86%
21:00 +18°C° 0 mm 1 mps 684 mmHg 88%
22:00 +16°C° 0 mm 1 mps 684 mmHg 89%
23:00 +16°C° 0 mm 1 mps 684 mmHg 91%

15 May, Saturday

Time Temperature Precipitation Wind Pressure Humidity
00:00 +15°C° 0 mm 1 mps 684 mmHg 93%
01:00 +15°C° 0 mm 1 mps 683 mmHg 93%
02:00 +15°C° 0 mm 1 mps 683 mmHg 94%
03:00 +15°C° 0 mm 1 mps 683 mmHg 94%
04:00 +14°C° 0 mm 1 mps 683 mmHg 95%
05:00 +14°C° 0 mm 1 mps 683 mmHg 96%
06:00 +14°C° 0 mm 1 mps 683 mmHg 96%
07:00 +15°C° 0 mm 1 mps 683 mmHg 92%
08:00 +18°C° 0 mm 1 mps 684 mmHg 87%
09:00 +20°C° 0 mm 1 mps 685 mmHg 83%
10:00 +21°C° 0.2 mm 1 mps 685 mmHg 76%
11:00 +23°C° 0.2 mm 1 mps 685 mmHg 69%
12:00 +25°C° 0.2 mm 1 mps 685 mmHg 62%
13:00 +25°C° 0.6 mm 1 mps 684 mmHg 62%
14:00 +25°C° 0.6 mm 2 mps 684 mmHg 62%
15:00 +25°C° 0.6 mm 2 mps 683 mmHg 62%
16:00 +23°C° 0.2 mm 2 mps 683 mmHg 68%
17:00 +20°C° 0.2 mm 2 mps 683 mmHg 75%
18:00 +19°C° 0.2 mm 1 mps 683 mmHg 82%
19:00 +18°C° 0 mm 1 mps 683 mmHg 84%
20:00 +16°C° 0 mm 1 mps 683 mmHg 87%
21:00 +16°C° 0 mm 1 mps 684 mmHg 89%
22:00 +16°C° 0 mm 1 mps 684 mmHg 90%
23:00 +15°C° 0 mm 1 mps 684 mmHg 90%
Show more

We Need Your Consent

Meteoprog and our Service Providers may store and access personal data such as cookies, device identifiers or other similar technologies on your device and process such data to personalise content and ads, as well as provide social media features and to analyse the traffic.

  • Store and/or access information on your device

    Cookies, device identifiers or other information can be stored or accessed on your device for the purposes indicated above.

  • Personalised ads and content, ad and content measurement, audience insights, and products development

    Ads and content can be personalised based on a profile. More data can be added to better personalise ads and content. Ad and content performance can be measured. Insights about the audience who saw the ads and content can be derived. Such data can be used to develop or improve user’s experience, systems and software.

By clicking ‘I Agree’ you will allow the use of indicated cookies, device identifiers, web beacons or other similar technologies. Your settings can be changed in the browser on your device.

For certain purposes, legitimate interests may be relied on, rather than consent. You can read more about this in our Privacy and Cookie Policy.